Murray, KY

5:14 AM CST on December 03, 2016 (GMT -0600)
Kyle-Oakley

Weather History for KCEY - March, 2014

Change the Weather History Date:

Friday, March 21, 2014

  Actual Average (KPAH) Record (KPAH)
Temperature  
Mean Temperature 55 °F 50 °F  
Max Temperature 68 °F 61 °F 80 °F (1966)
Min Temperature 42 °F 39 °F 19 °F (2013)
Degree Days  
Heating Degree Days 10 15  
Month to date heating degree days 386  
Since 1 July heating degree days 3682  
Cooling Degree Days 0 0  
Month to date cooling degree days 0  
Year to date cooling degree days 0  
Growing Degree Days 5 (Base 50)    
Moisture  
Dew Point 29 °F    
Average Humidity 38    
Maximum Humidity 53    
Minimum Humidity 24    
Precipitation  
Precipitation 0.00 in 0.14 in 1.77 in (2010)
Month to date precipitation 2.55  
Year to date precipitation 10.14  
Snow  
Snow 0.00 in 0.00 in T in (1984)
Month to date snowfall 0.5  
Since 1 July snowfall 9.0  
Snow Depth -    
Sea Level Pressure  
Sea Level Pressure 29.99 in    
Wind  
Wind Speed 8 mph (SSW)    
Max Wind Speed 15 mph    
Max Gust Speed 24 mph    
Visibility 10 miles    
Events      
T = Trace of Precipitation, MM = Missing Value Source: NWS Daily Summary

Daily Weather History Graph

Daily Weather History Graph

Search for Another Location

Airport or City:

Trip Planner

Search our weather history database for the weather conditions in past years. The results will help you decide how hot, cold, wet, or windy it might be!

Date:

Astronomy

Mar. 21, 2014 Rise Set
Actual Time 6:55 AM CDT 7:06 PM CDT
Civil Twilight 6:29 AM CDT 7:32 PM CDT
Nautical Twilight 5:59 AM CDT 8:02 PM CDT
Astronomical Twilight 5:29 AM CDT 8:32 PM CDT
Moon No Moon Rise 9:54 AM CDT (3/21)
Length of Visible Light 13h 02m
Length of Day
12h 10m
Waning Gibbous, 75% of the Moon is Illuminated
Mar 21
Waning Gibbous
Mar 23
Last Quarter
Mar 30
New
Apr 7
First Quarter
Apr 15
Full

Hourly Weather History & Observations

Time (CDT) Temp. Windchill Dew Point Humidity Pressure Visibility Wind Dir Wind Speed Gust Speed Precip Events Conditions
12:15 AM 48.2 °F - 26.6 °F 43% 30.07 in 10.0 mi SSW 5.8 mph - N/A   Clear
12:35 AM 44.6 °F 41.4 °F 28.4 °F 53% 30.06 in 10.0 mi South 5.8 mph - N/A   Clear
12:55 AM 44.6 °F 41.4 °F 26.6 °F 49% 30.07 in 10.0 mi SSW 5.8 mph - N/A   Clear
1:15 AM 44.6 °F 41.4 °F 28.4 °F 53% 30.06 in 10.0 mi SSW 5.8 mph - N/A   Scattered Clouds
1:35 AM 44.6 °F 41.4 °F 26.6 °F 49% 30.06 in 10.0 mi South 5.8 mph - N/A   Scattered Clouds
1:55 AM 46.4 °F 43.5 °F 26.6 °F 46% 30.05 in 10.0 mi South 5.8 mph - N/A   Clear
2:15 AM 46.4 °F 42.9 °F 26.6 °F 46% 30.06 in 10.0 mi South 6.9 mph - N/A   Clear
2:35 AM 46.4 °F 42.9 °F 26.6 °F 46% 30.05 in 10.0 mi South 6.9 mph - N/A   Clear
2:55 AM 46.4 °F 42.4 °F 26.6 °F 46% 30.05 in 10.0 mi South 8.1 mph - N/A   Clear
3:15 AM 44.6 °F 41.4 °F 26.6 °F 49% 30.04 in 10.0 mi South 5.8 mph - N/A   Clear
3:35 AM 44.6 °F 42.2 °F 26.6 °F 49% 30.03 in 10.0 mi South 4.6 mph - N/A   Scattered Clouds
3:55 AM 44.6 °F 42.2 °F 26.6 °F 49% 30.03 in 10.0 mi South 4.6 mph - N/A   Mostly Cloudy
4:15 AM 42.8 °F 39.3 °F 26.6 °F 53% 30.03 in 10.0 mi South 5.8 mph - N/A   Mostly Cloudy
4:35 AM 44.6 °F 41.4 °F 26.6 °F 49% 30.03 in 10.0 mi South 5.8 mph - N/A   Overcast
4:55 AM 44.6 °F 41.4 °F 26.6 °F 49% 30.03 in 10.0 mi South 5.8 mph - N/A   Mostly Cloudy
5:15 AM 44.6 °F 41.4 °F 26.6 °F 49% 30.03 in 10.0 mi South 5.8 mph - N/A   Clear
5:35 AM 44.6 °F 40.7 °F 26.6 °F 49% 30.03 in 10.0 mi South 6.9 mph - N/A   Clear
5:55 AM 44.6 °F 40.7 °F 26.6 °F 49% 30.03 in 10.0 mi South 6.9 mph - N/A   Clear
6:15 AM 44.6 °F 40.7 °F 26.6 °F 49% 30.03 in 10.0 mi South 6.9 mph - N/A   Clear
6:35 AM 44.6 °F 40.7 °F 26.6 °F 49% 30.03 in 10.0 mi South 6.9 mph - N/A   Clear
6:55 AM 44.6 °F 40.7 °F 26.6 °F 49% 30.03 in 10.0 mi South 6.9 mph - N/A   Clear
7:15 AM 44.6 °F 41.4 °F 26.6 °F 49% 30.04 in 10.0 mi South 5.8 mph - N/A   Clear
7:35 AM 46.4 °F 42.9 °F 28.4 °F 50% 30.04 in 10.0 mi South 6.9 mph - N/A   Clear
7:55 AM 46.4 °F 42.9 °F 28.4 °F 50% 30.03 in 10.0 mi South 6.9 mph - N/A   Clear
8:15 AM 48.2 °F - 28.4 °F 46% 30.02 in 10.0 mi South 5.8 mph - N/A   Clear
8:35 AM 50.0 °F - 30.2 °F 47% 30.03 in 10.0 mi SSW 6.9 mph - N/A   Clear
8:55 AM 53.6 °F - 28.4 °F 38% 30.04 in 10.0 mi SSW 8.1 mph - N/A   Clear
9:15 AM 55.4 °F - 28.4 °F 36% 30.04 in 10.0 mi SSW 5.8 mph - N/A   Clear
9:35 AM 55.4 °F - 26.6 °F 33% 30.04 in 10.0 mi SSW 9.2 mph 17.3 mph N/A   Clear
9:55 AM 57.2 °F - 26.6 °F 31% 30.05 in 10.0 mi SSW 8.1 mph - N/A   Clear
10:15 AM 57.2 °F - 26.6 °F 31% 30.05 in 10.0 mi SSW 10.4 mph 17.3 mph N/A   Clear
10:35 AM 59.0 °F - 28.4 °F 31% 30.05 in 10.0 mi SSW 10.4 mph - N/A   Clear
10:55 AM 60.8 °F - 28.4 °F 29% 30.05 in 10.0 mi SW 12.7 mph 18.4 mph N/A   Clear
11:15 AM 60.8 °F - 28.4 °F 29% 30.04 in 10.0 mi SSW 12.7 mph 17.3 mph N/A   Clear
11:35 AM 62.6 °F - 28.4 °F 27% 30.04 in 10.0 mi SSW 11.5 mph 20.7 mph N/A   Clear
11:55 AM 62.6 °F - 28.4 °F 27% 30.03 in 10.0 mi SSW 12.7 mph 18.4 mph N/A   Clear
12:15 PM 64.4 °F - 28.4 °F 26% 30.02 in 10.0 mi SSW 11.5 mph 17.3 mph N/A   Clear
12:35 PM 66.2 °F - 30.2 °F 26% 30.01 in 10.0 mi SSW 15.0 mph 19.6 mph N/A   Clear
12:55 PM 66.2 °F - 28.4 °F 24% 30.00 in 10.0 mi SW 13.8 mph 17.3 mph N/A   Clear
1:15 PM 66.2 °F - 28.4 °F 24% 29.99 in 10.0 mi WSW 13.8 mph 21.9 mph N/A   Clear
1:35 PM 66.2 °F - 28.4 °F 24% 29.98 in 10.0 mi SSW 9.2 mph 19.6 mph N/A   Clear
1:55 PM 66.2 °F - 28.4 °F 24% 29.97 in 10.0 mi SW 13.8 mph 20.7 mph N/A   Clear
2:15 PM 66.2 °F - 28.4 °F 24% 29.96 in 10.0 mi SSW 11.5 mph 18.4 mph N/A   Clear
2:35 PM 66.2 °F - 28.4 °F 24% 29.95 in 10.0 mi South 13.8 mph 18.4 mph N/A   Clear
2:55 PM 66.2 °F - 30.2 °F 26% 29.94 in 10.0 mi SW 11.5 mph 16.1 mph N/A   Clear
3:15 PM 66.2 °F - 30.2 °F 26% 29.94 in 10.0 mi SSW 12.7 mph 24.2 mph N/A   Clear
3:35 PM 66.2 °F - 28.4 °F 24% 29.93 in 10.0 mi South 13.8 mph 24.2 mph N/A   Clear
3:55 PM 68.0 °F - 30.2 °F 24% 29.93 in 10.0 mi SW 15.0 mph 20.7 mph N/A   Clear
4:15 PM 66.2 °F - 32.0 °F 28% 29.92 in 10.0 mi SW 13.8 mph 21.9 mph N/A   Clear
4:35 PM 66.2 °F - 32.0 °F 28% 29.92 in 10.0 mi SW 10.4 mph 21.9 mph N/A   Clear
4:55 PM 66.2 °F - 32.0 °F 28% 29.92 in 10.0 mi SW 13.8 mph 19.6 mph N/A   Clear
5:15 PM 66.2 °F - 32.0 °F 28% 29.91 in 10.0 mi SW 11.5 mph 21.9 mph N/A   Clear
5:35 PM 64.4 °F - 32.0 °F 30% 29.91 in 10.0 mi SW 13.8 mph 24.2 mph N/A   Clear
5:55 PM 64.4 °F - 32.0 °F 30% 29.91 in 10.0 mi SW 11.5 mph 17.3 mph N/A   Clear
6:15 PM 64.4 °F - 32.0 °F 30% 29.91 in 10.0 mi SW 8.1 mph - N/A   Clear
6:35 PM 62.6 °F - 32.0 °F 32% 29.91 in 10.0 mi SSW 8.1 mph 19.6 mph N/A   Clear
6:55 PM 62.6 °F - 32.0 °F 32% 29.91 in 10.0 mi SSW 6.9 mph - N/A   Clear
7:15 PM 62.6 °F - 32.0 °F 32% 29.91 in 10.0 mi SSW 4.6 mph - N/A   Clear
7:35 PM 59.0 °F - 32.0 °F 36% 29.91 in 10.0 mi SW 4.6 mph - N/A   Clear
7:55 PM 59.0 °F - 32.0 °F 36% 29.92 in 10.0 mi SW 4.6 mph - N/A   Clear
8:15 PM 55.4 °F - 32.0 °F 41% 29.92 in 10.0 mi SW 4.6 mph - N/A   Clear
8:35 PM 55.4 °F - 33.8 °F 44% 29.93 in 10.0 mi South 5.8 mph - N/A   Partly Cloudy
8:55 PM 57.2 °F - 32.0 °F 38% 29.93 in 10.0 mi South 4.6 mph - N/A   Partly Cloudy
9:15 PM 57.2 °F - 32.0 °F 38% 29.93 in 10.0 mi South 4.6 mph - N/A   Partly Cloudy
9:35 PM 57.2 °F - 32.0 °F 38% 29.93 in 10.0 mi South 5.8 mph - N/A   Partly Cloudy
9:55 PM 55.4 °F - 32.0 °F 41% 29.93 in 10.0 mi South 6.9 mph - N/A   Partly Cloudy
10:15 PM 55.4 °F - 32.0 °F 41% 29.93 in 10.0 mi South 5.8 mph - N/A   Partly Cloudy
10:35 PM 55.4 °F - 32.0 °F 41% 29.92 in 10.0 mi South 8.1 mph - N/A   Scattered Clouds
10:55 PM 55.4 °F - 32.0 °F 41% 29.94 in 10.0 mi SSW 6.9 mph - N/A   Mostly Cloudy
11:15 PM 55.4 °F - 32.0 °F 41% 29.93 in 10.0 mi South 8.1 mph - N/A   Mostly Cloudy
11:35 PM 55.4 °F - 32.0 °F 41% 29.93 in 10.0 mi SSW 8.1 mph - N/A   Mostly Cloudy
11:55 PM 55.4 °F - 32.0 °F 41% 29.93 in 10.0 mi SSW 8.1 mph - N/A   Partly Cloudy